User: anonymous   Login
Location: Unspecified
(0.0000°N, 0.0000°E)
Time: 19:44:24
(UTC+00:00)
Language:

COSMOS 2454 - Orbit

View from above orbital plane
View from above orbital plane
View from above satellite
View from above satellite

Ground track
Ground track

The orbit data is extracted from the following two-line orbital elements,

1 35635U 09039A   17269.49407333  .00000054  00000-0  30927-4 0  9995
2 35635  82.9533 281.7936 0020048  16.5840 343.5975 13.89617163415122
Epoch (UTC): 26 September 2017 11:51:27
Eccentricity: 0.0020048
inclination: 82.9533°
perigee height: 915 km
apogee height: 944 km
right ascension of ascending node: 281.7936°
argument of perigee: 16.5840°
revolutions per day: 13.89617163
mean anomaly at epoch: 343.5975°
orbit number at epoch: 41512

The dashed part of the orbit path shows where the satellite is in the earth's shadow,  

DLR